Location: Miles
(41.4492°N, 81.6087°W)
Time: 06:26:46
(UTC+00:00)

Vanguard 1 Rocket - Pass Details

Date: 16 September 2024
Orbit: 650 x 4218 km, 34.3° (Epoch: 05 October)

Event Time Altitude Azimuth Distance (km) Brightness Sun altitude
Rises 08:58:29 0° 238° (WSW) 5,263 - -24.2°
Reaches altitude 10° 09:01:20 10° 234° (SW) 4,624 - -23.7°
Exits shadow 09:05:41 28° 225° (SW) 3,849 10.0 -22.9°
Maximum altitude 09:15:22 61° 158° (SSE) 3,509 10.2 -21.3°
Drops below altitude 10° 09:39:22 10° 87° (E) 7,395 13.2 -17.1°
Sets 09:45:29 0° 84° (E) 8,461 14.0 -16.0°
